Weather History for EGXG - July, 2013

Change the Weather History Date:

Tuesday, July 2, 2013

  Actual Average Record
Temperature  
Mean Temperature 54 °F -  
Max Temperature 63 °F - - ()
Min Temperature 46 °F - - ()
Degree Days  
Heating Degree Days 10    
Growing Degree Days 4 (Base 50)    
Moisture  
Dew Point 49 °F    
Average Humidity 79    
Maximum Humidity 94    
Minimum Humidity 53    
Precipitation  
Precipitation 0.01 in - - ()
Sea Level Pressure  
Sea Level Pressure 29.76 in    
Wind  
Wind Speed 8 mph ()    
Max Wind Speed 16 mph    
Max Gust Speed -    
Visibility 7.8 miles    
Events Rain    
T = Trace of Precipitation, MM = Missing Value Source: Averaged Metar Reports

Daily Weather History Graph

Daily Weather History Graph

Search for Another Location

Airport or City:

Trip Planner

Search our weather history database for the weather conditions in past years. The results will help you decide how hot, cold, wet, or windy it might be!

Date:

Astronomy

Jul. 02, 2013 Rise Set
Actual Time 4:39 AM BST 9:38 PM BST
Civil Twilight 3:46 AM BST 10:31 PM BST
Nautical Twilight 2:10 AM BST 12:05 AM BST
Astronomical Twilight Sun does not set Sun does not set
Moon 1:04 AM BST (7/2) 4:12 PM BST (7/2)
Length of Visible Light 18h 45m
Length of Day
16h 59m
Waning Crescent, 28% of the Moon is Illuminated
Jul 2
Waning Crescent
Jul 8
New
Jul 16
First Quarter
Jul 22
Full
Jul 29
Last Quarter

Hourly Weather History & Observations

Time (BST) Temp. Dew Point Humidity Pressure Visibility Wind Dir Wind Speed Gust Speed Precip Events Conditions
12:50 AM 49 °F 43 °F 73% 29.96 in 14 mi SW 4.6 mph - -  
12:50 AM 48.2 °F 42.8 °F 82% 29.95 in 6.2 mi SW 4.6 mph - N/A   Unknown
1:50 AM 48.2 °F 42.8 °F 82% 29.95 in 6.2 mi SW 4.6 mph - N/A   Partly Cloudy
2:50 AM 48.2 °F 42.8 °F 82% 29.95 in 6.2 mi WSW 3.5 mph - N/A   Mostly Cloudy
3:50 AM 49 °F 46 °F 83% 29.93 in 14 mi South 4.6 mph - -   Overcast
3:50 AM 50.0 °F 46.4 °F 87% 29.92 in 6.2 mi South 4.6 mph - N/A   Overcast
4:50 AM 48.2 °F 44.6 °F 87% 29.89 in 6.2 mi SSE 5.8 mph - N/A   Scattered Clouds
5:50 AM 48.2 °F 44.6 °F 87% 29.89 in 6.2 mi South 5.8 mph - N/A   Mostly Cloudy
6:50 AM 51 °F 47 °F 81% 29.89 in 9 mi South 4.6 mph - - Rain Light Rain Showers
6:50 AM 50.0 °F 46.4 °F 87% 29.89 in 6.2 mi South 4.6 mph - N/A Rain Light Rain Showers
7:50 AM 51.8 °F 48.2 °F 88% 29.86 in 6.2 mi SSE 6.9 mph - N/A Rain Light Rain
8:50 AM 53.6 °F 48.2 °F 82% 29.86 in - South 10.4 mph - N/A   Clear
9:50 AM 55 °F 49 °F 73% 29.85 in 12 mi South 11.5 mph - - Rain Light Rain
9:50 AM 55.4 °F 48.2 °F 77% 29.83 in - South 11.5 mph - N/A   Clear
10:50 AM 59.0 °F 48.2 °F 67% 29.80 in - South 12.7 mph - N/A   Clear
11:50 AM 60.8 °F 48.2 °F 63% 29.77 in - SSE 13.8 mph - N/A   Clear
12:50 PM 62 °F 50 °F 55% 29.77 in 16 mi South 15.0 mph - - Rain Light Rain
12:50 PM 62.6 °F 50.0 °F 63% 29.74 in - South 15.0 mph - N/A   Clear
1:50 PM 62.6 °F 50.0 °F 63% 29.71 in - South 16.1 mph - N/A   Clear
2:50 PM 62.6 °F 50.0 °F 63% 29.68 in - South 13.8 mph - N/A   Clear
3:50 PM 62 °F 49 °F 53% 29.70 in 16 mi South 16.1 mph - -   Overcast
3:50 PM 62.6 °F 50.0 °F 63% 29.68 in 6.2 mi South 16.1 mph - N/A   Overcast
4:50 PM 60.8 °F 51.8 °F 72% 29.65 in 6.2 mi South 16.1 mph - N/A Rain Light Rain
5:50 PM 59.0 °F 53.6 °F 82% 29.62 in 6.2 mi South 10.4 mph - N/A Rain Rain
6:50 PM 58 °F 55 °F 86% 29.62 in 9 mi SSE 11.5 mph - - Rain Light Rain
6:50 PM 59.0 °F 55.4 °F 88% 29.62 in 6.2 mi SSE 11.5 mph - N/A Rain Light Rain
7:50 PM 59.0 °F 55.4 °F 88% 29.59 in 6.2 mi SSE 10.4 mph - N/A   Mostly Cloudy
8:50 PM 57.2 °F 55.4 °F 94% 29.56 in 3.1 mi SSE 9.2 mph - N/A Rain Rain Showers
9:50 PM 57 °F 55 °F 92% 29.57 in 2 mi South 12.7 mph - - Rain Rain Showers
9:50 PM 57.2 °F 55.4 °F 94% 29.56 in - South 12.7 mph - N/A Rain Rain Showers
10:50 PM 57.2 °F 55.4 °F 94% 29.56 in 6.2 mi South 11.5 mph - N/A   Scattered Clouds
11:50 PM 57.2 °F 55.4 °F 94% 29.53 in 6.2 mi South 8.1 mph - N/A   Scattered Clouds